Weather History for KDFW - June, 2013

Change the Weather History Date:

Monday, June 10, 2013

  Actual Average Record
Temperature  
Mean Temperature 84 °F 80 °F  
Max Temperature 97 °F 90 °F 101 °F (1936)
Min Temperature 70 °F 71 °F 58 °F (1955)
Degree Days  
Heating Degree Days 0 0  
Month to date heating degree days 0 0  
Since 1 June heating degree days 0 0  
Since 1 July heating degree days 2045 2284  
Cooling Degree Days 19 15  
Month to date cooling degree days 133 144  
Year to date cooling degree days 522 566  
Since 1 June cooling degree days 133 144  
Growing Degree Days 33 (Base 50)    
Moisture  
Dew Point 64 °F    
Average Humidity 55    
Maximum Humidity 84    
Minimum Humidity 25    
Precipitation  
Precipitation 0.00 in 0.13 in 2.43 in (1923)
Month to date precipitation 1.34 1.42  
Year to date precipitation 14.50 17.67  
Sea Level Pressure  
Sea Level Pressure 29.92 in    
Wind  
Wind Speed 10 mph (SSW)    
Max Wind Speed 17 mph    
Max Gust Speed 21 mph    
Visibility 10 miles    
Events      
T = Trace of Precipitation, MM = Missing Value Source: NWS Daily Summary

Daily Weather History Graph

Daily Weather History Graph

Search for Another Location

Airport or City:

Trip Planner

Search our weather history database for the weather conditions in past years. The results will help you decide how hot, cold, wet, or windy it might be!

Date:

Astronomy

Jun. 10, 2013 Rise Set
Actual Time 6:19 AM CDT 8:36 PM CDT
Civil Twilight 5:50 AM CDT 9:04 PM CDT
Nautical Twilight 5:15 AM CDT 9:39 PM CDT
Astronomical Twilight 4:37 AM CDT 10:17 PM CDT
Moon 8:04 AM CDT (6/10) 10:09 PM CDT (6/10)
Length of Visible Light 15h 14m
Length of Day
14h 17m
Waxing Crescent, 4% of the Moon is Illuminated
Jun 10
Waxing Crescent
Jun 16
First Quarter
Jun 23
Full
Jun 29
Last Quarter
Jul 8
New

Hourly Weather History & Observations

Time (CDT) Temp. Heat Index Dew Point Humidity Pressure Visibility Wind Dir Wind Speed Gust Speed Precip Events Conditions
12:53 AM 77.0 °F - 66.0 °F 69% 29.91 in 10.0 mi South 3.5 mph - N/A   Clear
1:53 AM 73.9 °F - 66.0 °F 76% 29.91 in 10.0 mi South 6.9 mph - N/A   Partly Cloudy
2:53 AM 73.9 °F - 66.0 °F 76% 29.91 in 10.0 mi SSW 4.6 mph - N/A   Partly Cloudy
3:53 AM 71.1 °F - 66.0 °F 84% 29.91 in 10.0 mi SSW 4.6 mph - N/A   Clear
4:53 AM 71.1 °F - 66.0 °F 84% 29.91 in 10.0 mi SSW 6.9 mph - N/A   Clear
5:53 AM 70.0 °F - 64.9 °F 84% 29.91 in 10.0 mi SSW 3.5 mph - N/A   Partly Cloudy
6:53 AM 71.1 °F - 66.0 °F 84% 29.93 in 10.0 mi SSW 6.9 mph - N/A   Partly Cloudy
7:53 AM 75.0 °F - 66.9 °F 76% 29.93 in 10.0 mi SSW 6.9 mph - N/A   Clear
8:53 AM 79.0 °F - 69.1 °F 72% 29.94 in 10.0 mi SSW 16.1 mph - N/A   Clear
9:53 AM 84.0 °F 87.8 °F 69.1 °F 61% 29.93 in 10.0 mi SW 16.1 mph 25.3 mph N/A   Clear
10:53 AM 87.1 °F 90.6 °F 68.0 °F 53% 29.94 in 10.0 mi WSW 15.0 mph - N/A   Clear
11:53 AM 89.6 °F 93.4 °F 68.0 °F 49% 29.95 in 10.0 mi SW 17.3 mph 23.0 mph N/A   Clear
12:53 PM 91.0 °F 95.2 °F 68.0 °F 47% 29.94 in 10.0 mi SSW 11.5 mph - N/A   Clear
1:53 PM 93.0 °F 94.6 °F 64.0 °F 38% 29.94 in 10.0 mi SSW 11.5 mph - N/A   Clear
2:53 PM 95.0 °F 96.0 °F 63.0 °F 34% 29.93 in 10.0 mi South 13.8 mph - N/A   Clear
3:53 PM 96.1 °F 96.0 °F 60.1 °F 30% 29.92 in 10.0 mi South 9.2 mph 20.7 mph N/A   Partly Cloudy
4:53 PM 96.1 °F 95.6 °F 59.0 °F 29% 29.91 in 10.0 mi SW 10.4 mph - N/A   Partly Cloudy
5:53 PM 96.1 °F 94.5 °F 55.9 °F 26% 29.90 in 10.0 mi South 13.8 mph - N/A   Partly Cloudy
6:53 PM 93.9 °F 92.2 °F 55.9 °F 28% 29.89 in 10.0 mi SSE 12.7 mph - N/A   Clear
7:53 PM 91.0 °F 90.2 °F 59.0 °F 34% 29.90 in 10.0 mi South 9.2 mph - N/A   Clear
8:53 PM 86.0 °F 86.8 °F 63.0 °F 46% 29.90 in 10.0 mi SSE 9.2 mph - N/A   Partly Cloudy
9:53 PM 86.0 °F 86.3 °F 62.1 °F 44% 29.91 in 10.0 mi South 9.2 mph - N/A   Partly Cloudy
10:53 PM 84.0 °F 84.5 °F 62.1 °F 47% 29.94 in 10.0 mi SSE 10.4 mph - N/A   Clear
11:53 PM 82.9 °F 84.0 °F 63.0 °F 51% 29.96 in 10.0 mi South 10.4 mph - N/A   Clear